Track IRIDIUM 46 now! 10-day predictions IRIDIUM 46 is classified as:
1 24905U 97043C 19049.19627599 .00152292 54964-5 53467-3 0 9996 2 24905 86.3746 330.0350 0152717 15.9647 344.6357 15.73001633129479